This is the latest recevied weather packets stored in our database for station/object DH9NFM-12. If no packets are shown the sender has not sent any weather packets the latest 10 day(s).
| Time | Temp. | Humidity | Pressure | Rain* | Wind** | Luminosity | Snow |
|---|---|---|---|---|---|---|---|
| 1777584648 | 7.78° C | 67% | 1026 hPa | 0 mm | - | - | - |
| 1777584023 | 7.78° C | 66% | 1026 hPa | 0 mm | - | - | - |
| 1777583399 | 7.78° C | 66% | 1026.1 hPa | 0 mm | - | - | - |
| 1777582774 | 7.78° C | 65% | 1026.1 hPa | 0 mm | - | - | - |
| 1777582149 | 7.78° C | 66% | 1026.1 hPa | 0 mm | - | - | - |
| 1777581525 | 7.78° C | 66% | 1026.2 hPa | 0 mm | - | - | - |
| 1777580900 | 7.78° C | 66% | 1026.2 hPa | 0 mm | - | - | - |
| 1777580275 | 7.78° C | 66% | 1026.2 hPa | 0 mm | - | - | - |
| 1777579651 | 7.78° C | 65% | 1026.2 hPa | 0 mm | - | - | - |
| 1777579026 | 7.78° C | 65% | 1026.2 hPa | 0 mm | - | - | - |
| 1777578402 | 8.33° C | 64% | 1026.1 hPa | 0 mm | - | - | - |
| 1777577777 | 8.33° C | 63% | 1026.1 hPa | 0 mm | - | - | - |
| 1777577152 | 8.33° C | 62% | 1026 hPa | 0 mm | - | - | - |
| 1777576527 | 8.89° C | 61% | 1025.9 hPa | 0 mm | - | - | - |
| 1777575903 | 8.89° C | 60% | 1025.8 hPa | 0 mm | - | - | - |
| 1777575278 | 8.89° C | 59% | 1025.8 hPa | 0 mm | - | - | - |
| 1777574654 | 9.44° C | 58% | 1025.6 hPa | 0 mm | - | - | - |
| 1777574029 | 9.44° C | 56% | 1025.6 hPa | 0 mm | - | - | - |
| 1777573404 | 10° C | 55% | 1025.5 hPa | 0 mm | - | - | - |
| 1777572780 | 10.56° C | 53% | 1025.5 hPa | 0 mm | - | - | - |
| 1777572155 | 10.56° C | 51% | 1025.3 hPa | 0 mm | - | - | - |
| 1777571530 | 11.11° C | 49% | 1025.4 hPa | 0 mm | - | - | - |
| 1777570906 | 11.67° C | 48% | 1025.3 hPa | 0 mm | - | - | - |
| 1777570281 | 12.78° C | 45% | 1025.3 hPa | 0 mm | - | - | - |
| 1777569657 | 13.89° C | 42% | 1025.1 hPa | 0 mm | - | - | - |
* Rain latest hour (hover to see other rain measurements)
** Current wind speed in m/s (hover to see current wind gust speed)